Time,TemperatureF,DewpointF,PressureIn,WindDirection,WindDirectionDegrees,WindSpeedMPH,WindSpeedGustMPH,Humidity,HourlyPrecipIn,Conditions,Clouds,dailyrainin,SoftwareType,DateUTC
2013-01-27 00:00:00,24.1,21.3,30.44,SE,126,0.0,0.0,89,0.00,,---,0.07,VWS V14.01,2013-01-27 05:00:00,
2013-01-27 00:01:00,24.1,21.3,30.44,SE,126,0.0,0.0,89,0.00,,---,0.07,VWS V14.01,2013-01-27 05:01:00,
2013-01-27 00:06:00,24.0,21.2,30.45,SE,126,0.0,0.0,89,0.00,,---,0.00,VWS V14.01,2013-01-27 05:06:00,
2013-01-27 00:11:00,23.9,21.1,30.45,SE,126,0.0,0.0,89,0.00,,---,0.00,VWS V14.01,2013-01-27 05:11:00,
2013-01-27 00:16:00,23.9,21.1,30.44,SE,126,0.0,0.0,89,0.00,,---,0.00,VWS V14.01,2013-01-27 05:16:00,
2013-01-27 00:22:00,23.8,21.0,30.45,SE,126,0.0,0.0,89,0.00,,---,0.00,VWS V14.01,2013-01-27 05:22:00,
2013-01-27 00:27:00,23.7,20.9,30.44,SE,126,0.0,0.0,89,0.00,,---,0.00,VWS V14.01,2013-01-27 05:27:00,
2013-01-27 00:32:00,23.8,21.0,30.44,SE,126,0.0,0.0,89,0.00,,---,0.00,VWS V14.01,2013-01-27 05:32:00,
2013-01-27 00:37:00,23.8,21.0,30.44,SE,126,0.0,0.0,89,0.00,,---,0.00,VWS V14.01,2013-01-27 05:37:00,
2013-01-27 00:42:00,23.7,20.9,30.44,SE,126,0.0,0.0,89,0.00,,---,0.00,VWS V14.01,2013-01-27 05:42:00,
2013-01-27 00:47:00,23.6,20.8,30.44,SE,126,0.0,0.0,89,0.00,,---,0.00,VWS V14.01,2013-01-27 05:47:00,
2013-01-27 00:52:00,23.3,20.5,30.44,SE,126,0.0,0.0,89,0.00,,---,0.00,VWS V14.01,2013-01-27 05:52:00,
2013-01-27 00:57:00,23.0,20.2,30.45,SE,126,0.0,0.0,89,0.00,,---,0.00,VWS V14.01,2013-01-27 05:57:00,
2013-01-27 01:02:00,22.8,20.0,30.45,SE,126,0.0,0.0,89,0.00,,---,0.00,VWS V14.01,2013-01-27 06:02:00,
2013-01-27 01:07:00,22.6,19.9,30.45,SE,126,0.0,0.0,89,0.00,,---,0.00,VWS V14.01,2013-01-27 06:07:00,
2013-01-27 01:12:00,22.5,19.8,30.45,SE,126,0.0,0.0,89,0.00,,---,0.00,VWS V14.01,2013-01-27 06:12:00,
2013-01-27 01:17:00,22.4,19.7,30.45,SE,126,0.0,0.0,89,0.00,,---,0.00,VWS V14.01,2013-01-27 06:17:00,
2013-01-27 01:22:00,22.4,19.9,30.45,SE,126,0.0,0.0,90,0.00,,---,0.00,VWS V14.01,2013-01-27 06:22:00,
2013-01-27 01:27:00,22.3,19.8,30.45,SE,126,0.0,0.0,90,0.00,,---,0.00,VWS V14.01,2013-01-27 06:27:00,
2013-01-27 01:32:00,22.2,19.7,30.46,SE,126,0.0,0.0,90,0.00,,---,0.00,VWS V14.01,2013-01-27 06:32:00,
2013-01-27 01:37:00,22.1,19.6,30.46,SE,126,0.0,0.0,90,0.00,,---,0.00,VWS V14.01,2013-01-27 06:37:00,
2013-01-27 01:42:00,21.8,19.1,30.46,SE,126,0.0,0.0,89,0.00,,---,0.00,VWS V14.01,2013-01-27 06:42:00,
2013-01-27 01:47:00,21.7,19.0,30.47,SE,126,0.0,0.0,89,0.00,,---,0.00,VWS V14.01,2013-01-27 06:47:00,
2013-01-27 01:52:00,21.6,19.1,30.47,SE,126,0.0,0.0,90,0.00,,---,0.00,VWS V14.01,2013-01-27 06:52:00,
2013-01-27 01:57:00,21.5,19.0,30.47,SE,126,0.0,0.0,90,0.00,,---,0.00,VWS V14.01,2013-01-27 06:57:00,
2013-01-27 02:02:00,21.5,19.0,30.47,SE,126,0.0,0.0,90,0.00,,---,0.00,VWS V14.01,2013-01-27 07:02:00,
2013-01-27 02:07:00,21.3,18.6,30.47,SE,126,0.0,0.0,89,0.00,,---,0.00,VWS V14.01,2013-01-27 07:07:00,
2013-01-27 02:13:00,21.2,18.5,30.48,SE,126,0.0,0.0,89,0.00,,---,0.00,VWS V14.01,2013-01-27 07:13:00,
2013-01-27 02:18:00,21.2,18.7,30.48,SE,126,0.0,0.0,90,0.00,,---,0.00,VWS V14.01,2013-01-27 07:18:00,
2013-01-27 02:23:00,21.2,18.7,30.48,SE,126,0.0,0.0,90,0.00,,---,0.00,VWS V14.01,2013-01-27 07:23:00,
2013-01-27 02:28:00,21.2,18.7,30.49,SE,126,0.0,0.0,90,0.00,,---,0.00,VWS V14.01,2013-01-27 07:28:00,
2013-01-27 02:33:00,21.2,18.7,30.48,SE,126,0.0,0.0,90,0.00,,---,0.00,VWS V14.01,2013-01-27 07:33:00,
2013-01-27 02:38:00,21.2,18.7,30.49,SE,126,0.0,0.0,90,0.00,,---,0.00,VWS V14.01,2013-01-27 07:38:00,
2013-01-27 02:43:00,21.2,18.7,30.48,SE,126,0.0,0.0,90,0.00,,---,0.00,VWS V14.01,2013-01-27 07:43:00,
2013-01-27 02:48:00,21.1,18.6,30.48,SE,126,0.0,0.0,90,0.00,,---,0.00,VWS V14.01,2013-01-27 07:48:00,
2013-01-27 02:53:00,20.9,18.4,30.48,SE,126,0.0,0.0,90,0.00,,---,0.00,VWS V14.01,2013-01-27 07:53:00,
2013-01-27 02:58:00,20.8,18.3,30.48,SE,126,0.0,0.0,90,0.00,,---,0.00,VWS V14.01,2013-01-27 07:58:00,
2013-01-27 03:03:00,20.8,18.1,30.49,SE,126,0.0,0.0,89,0.00,,---,0.00,VWS V14.01,2013-01-27 08:03:00,
2013-01-27 03:08:00,20.8,18.1,30.49,SE,126,0.0,0.0,89,0.00,,---,0.00,VWS V14.01,2013-01-27 08:08:00,
2013-01-27 03:13:00,20.6,17.9,30.49,SE,126,0.0,0.0,89,0.00,,---,0.00,VWS V14.01,2013-01-27 08:13:00,
2013-01-27 03:18:00,20.4,17.7,30.49,SE,126,0.0,0.0,89,0.00,,---,0.00,VWS V14.01,2013-01-27 08:18:00,
2013-01-27 03:23:00,20.3,17.6,30.48,SE,126,0.0,0.0,89,0.00,,---,0.00,VWS V14.01,2013-01-27 08:23:00,
2013-01-27 03:28:00,20.3,17.8,30.48,SE,126,0.0,0.0,90,0.00,,---,0.00,VWS V14.01,2013-01-27 08:28:00,
2013-01-27 03:33:00,20.3,17.8,30.48,SE,126,0.0,0.0,90,0.00,,---,0.00,VWS V14.01,2013-01-27 08:33:00,
2013-01-27 03:38:00,20.3,17.6,30.48,SE,126,0.0,0.0,89,0.00,,---,0.00,VWS V14.01,2013-01-27 08:38:00,
2013-01-27 03:43:00,20.2,17.5,30.48,SE,126,0.0,0.0,89,0.00,,---,0.00,VWS V14.01,2013-01-27 08:43:00,
2013-01-27 03:48:00,19.9,17.2,30.49,SE,126,0.0,0.0,89,0.00,,---,0.00,VWS V14.01,2013-01-27 08:48:00,
2013-01-27 03:53:00,19.7,17.0,30.48,SE,126,0.0,0.0,89,0.00,,---,0.00,VWS V14.01,2013-01-27 08:53:00,
2013-01-27 03:59:00,19.6,16.9,30.48,SE,126,0.0,0.0,89,0.00,,---,0.00,VWS V14.01,2013-01-27 08:59:00,
2013-01-27 04:04:00,19.5,16.8,30.48,SE,126,0.0,0.0,89,0.00,,---,0.00,VWS V14.01,2013-01-27 09:04:00,
2013-01-27 04:09:00,19.4,16.7,30.48,SE,126,0.0,0.0,89,0.00,,---,0.00,VWS V14.01,2013-01-27 09:09:00,
2013-01-27 04:14:00,19.3,16.6,30.48,SE,126,0.0,0.0,89,0.00,,---,0.00,VWS V14.01,2013-01-27 09:14:00,
2013-01-27 04:19:00,19.1,16.4,30.48,SE,126,0.0,0.0,89,0.00,,---,0.00,VWS V14.01,2013-01-27 09:19:00,
2013-01-27 04:24:00,19.0,16.3,30.48,SE,126,0.0,0.0,89,0.00,,---,0.00,VWS V14.01,2013-01-27 09:24:00,
2013-01-27 04:29:00,18.8,16.1,30.48,SE,126,0.0,0.0,89,0.00,,---,0.00,VWS V14.01,2013-01-27 09:29:00,
2013-01-27 04:34:00,18.7,16.0,30.48,SE,126,0.0,0.0,89,0.00,,---,0.00,VWS V14.01,2013-01-27 09:34:00,
2013-01-27 04:39:00,18.7,16.0,30.48,SE,126,0.0,0.0,89,0.00,,---,0.00,VWS V14.01,2013-01-27 09:39:00,
2013-01-27 04:44:00,18.7,16.0,30.48,SE,126,0.0,0.0,89,0.00,,---,0.00,VWS V14.01,2013-01-27 09:44:00,
2013-01-27 04:49:00,18.7,16.0,30.48,SE,126,0.0,0.0,89,0.00,,---,0.00,VWS V14.01,2013-01-27 09:49:00,
2013-01-27 04:54:00,18.7,16.0,30.48,SE,126,0.0,0.0,89,0.00,,---,0.00,VWS V14.01,2013-01-27 09:54:00,
2013-01-27 04:59:00,18.6,15.9,30.48,SE,126,0.0,0.0,89,0.00,,---,0.00,VWS V14.01,2013-01-27 09:59:00,
2013-01-27 05:04:00,18.6,15.9,30.49,SE,126,0.0,0.0,89,0.00,,---,0.00,VWS V14.01,2013-01-27 10:04:00,
2013-01-27 05:09:00,18.5,15.8,30.49,SE,126,0.0,0.0,89,0.00,,---,0.00,VWS V14.01,2013-01-27 10:09:00,
2013-01-27 05:14:00,18.4,15.7,30.49,SE,126,0.0,0.0,89,0.00,,---,0.00,VWS V14.01,2013-01-27 10:14:00,
2013-01-27 05:19:00,18.2,15.2,30.49,SE,126,0.0,0.0,88,0.00,,---,0.00,VWS V14.01,2013-01-27 10:19:00,
2013-01-27 05:24:00,18.1,15.4,30.49,SE,126,0.0,0.0,89,0.00,,---,0.00,VWS V14.01,2013-01-27 10:24:00,
2013-01-27 05:29:00,18.0,15.3,30.50,SE,126,0.0,0.0,89,0.00,,---,0.00,VWS V14.01,2013-01-27 10:29:00,
2013-01-27 05:34:00,17.9,15.2,30.50,SE,126,0.0,0.0,89,0.00,,---,0.00,VWS V14.01,2013-01-27 10:34:00,
2013-01-27 05:39:00,18.1,15.4,30.51,SE,126,0.0,0.0,89,0.00,,---,0.00,VWS V14.01,2013-01-27 10:39:00,
2013-01-27 05:44:00,18.2,15.5,30.51,SE,126,0.0,0.0,89,0.00,,---,0.00,VWS V14.01,2013-01-27 10:44:00,
2013-01-27 05:49:00,18.4,16.0,30.51,SE,126,0.0,0.0,90,0.00,,---,0.00,VWS V14.01,2013-01-27 10:49:00,
2013-01-27 05:54:00,18.7,16.3,30.51,SE,126,0.0,0.0,90,0.00,,---,0.00,VWS V14.01,2013-01-27 10:54:00,
2013-01-27 05:59:00,18.9,16.5,30.51,SE,126,0.0,0.0,90,0.00,,---,0.00,VWS V14.01,2013-01-27 10:59:00,
2013-01-27 06:04:00,19.2,16.8,30.52,SE,126,0.0,0.0,90,0.00,,---,0.00,VWS V14.01,2013-01-27 11:04:00,
2013-01-27 06:09:00,19.5,17.0,30.52,SE,126,0.0,0.0,90,0.00,,---,0.00,VWS V14.01,2013-01-27 11:09:00,
2013-01-27 06:15:00,19.7,17.2,30.52,SE,126,0.0,0.0,90,0.00,,---,0.00,VWS V14.01,2013-01-27 11:15:00,
2013-01-27 06:20:00,20.0,17.5,30.53,SE,126,0.0,0.0,90,0.00,,---,0.00,VWS V14.01,2013-01-27 11:20:00,
2013-01-27 06:25:00,20.2,17.7,30.53,SE,126,0.0,0.0,90,0.00,,---,0.00,VWS V14.01,2013-01-27 11:25:00,
2013-01-27 06:30:00,20.3,17.8,30.53,SE,126,0.0,0.0,90,0.00,,---,0.00,VWS V14.01,2013-01-27 11:30:00,
2013-01-27 06:35:00,20.4,17.9,30.53,SE,126,0.0,0.0,90,0.00,,---,0.00,VWS V14.01,2013-01-27 11:35:00,
2013-01-27 06:40:00,20.4,17.9,30.53,SE,126,0.0,0.0,90,0.00,,---,0.00,VWS V14.01,2013-01-27 11:40:00,
2013-01-27 06:45:00,20.6,18.1,30.54,SE,126,0.0,0.0,90,0.00,,---,0.00,VWS V14.01,2013-01-27 11:45:00,
2013-01-27 06:50:00,20.8,18.3,30.54,SE,126,0.0,0.0,90,0.00,,---,0.00,VWS V14.01,2013-01-27 11:50:00,
2013-01-27 06:55:00,20.9,18.4,30.53,SE,126,0.0,0.0,90,0.00,,---,0.00,VWS V14.01,2013-01-27 11:55:00,
2013-01-27 07:00:00,21.1,18.6,30.53,SE,126,0.0,0.0,90,0.00,,---,0.00,VWS V14.01,2013-01-27 12:00:00,
2013-01-27 07:05:00,21.3,18.8,30.54,SE,126,0.0,0.0,90,0.00,,---,0.00,VWS V14.01,2013-01-27 12:05:00,
2013-01-27 07:10:00,21.7,19.5,30.54,SE,126,0.0,0.0,91,0.00,,---,0.00,VWS V14.01,2013-01-27 12:10:00,
2013-01-27 07:15:00,22.0,19.8,30.55,SE,126,0.0,0.0,91,0.00,,---,0.00,VWS V14.01,2013-01-27 12:15:00,
2013-01-27 07:20:00,22.3,20.1,30.55,SE,126,0.0,0.0,91,0.00,,---,0.00,VWS V14.01,2013-01-27 12:20:00,
2013-01-27 07:25:00,22.7,20.5,30.55,SE,126,0.0,0.0,91,0.00,,---,0.00,VWS V14.01,2013-01-27 12:25:00,
2013-01-27 07:30:00,22.9,20.7,30.56,SE,126,0.0,0.0,91,0.00,,---,0.00,VWS V14.01,2013-01-27 12:30:00,
2013-01-27 07:35:00,22.7,20.2,30.56,SE,126,0.0,0.0,90,0.00,,---,0.00,VWS V14.01,2013-01-27 12:35:00,
2013-01-27 07:40:00,22.6,20.1,30.57,SE,126,0.0,0.0,90,0.00,,---,0.00,VWS V14.01,2013-01-27 12:40:00,
2013-01-27 07:45:00,22.6,20.1,30.57,SE,126,0.0,0.0,90,0.00,,---,0.00,VWS V14.01,2013-01-27 12:45:00,
2013-01-27 07:50:00,22.6,20.1,30.57,SE,126,0.0,0.0,90,0.00,,---,0.00,VWS V14.01,2013-01-27 12:50:00,
2013-01-27 07:55:00,22.7,20.2,30.57,SE,126,0.0,0.0,90,0.00,,---,0.00,VWS V14.01,2013-01-27 12:55:00,
2013-01-27 08:00:00,22.7,20.2,30.58,SE,126,0.0,0.0,90,0.00,,---,0.00,VWS V14.01,2013-01-27 13:00:00,
2013-01-27 08:05:00,22.9,20.4,30.58,SE,126,0.0,0.0,90,0.00,,---,0.00,VWS V14.01,2013-01-27 13:05:00,
2013-01-27 08:10:00,23.1,20.6,30.58,SE,126,0.0,0.0,90,0.00,,---,0.00,VWS V14.01,2013-01-27 13:10:00,
2013-01-27 08:15:00,23.3,20.8,30.58,SE,126,0.0,0.0,90,0.00,,---,0.00,VWS V14.01,2013-01-27 13:15:00,
2013-01-27 08:21:00,23.4,21.2,30.58,SE,126,0.0,0.0,91,0.00,,---,0.00,VWS V14.01,2013-01-27 13:21:00,
2013-01-27 08:26:00,23.6,21.1,30.59,SE,126,0.0,0.0,90,0.00,,---,0.00,VWS V14.01,2013-01-27 13:26:00,
2013-01-27 08:31:00,23.8,21.6,30.59,SE,126,0.0,0.0,91,0.00,,---,0.00,VWS V14.01,2013-01-27 13:31:00,
2013-01-27 08:36:00,24.0,21.8,30.59,SE,126,0.0,0.0,91,0.00,,---,0.00,VWS V14.01,2013-01-27 13:36:00,
2013-01-27 08:41:00,24.2,22.0,30.59,SE,126,0.0,0.0,91,0.00,,---,0.00,VWS V14.01,2013-01-27 13:41:00,
2013-01-27 08:46:00,24.3,21.8,30.59,SE,126,0.0,0.0,90,0.00,,---,0.00,VWS V14.01,2013-01-27 13:46:00,
2013-01-27 08:51:00,24.5,22.2,30.59,SE,126,0.0,0.0,91,0.00,,---,0.00,VWS V14.01,2013-01-27 13:51:00,
2013-01-27 08:56:00,24.8,22.5,30.59,SE,126,0.0,0.0,91,0.00,,---,0.00,VWS V14.01,2013-01-27 13:56:00,
2013-01-27 09:01:00,25.0,22.8,30.59,SE,126,0.0,0.0,91,0.00,,---,0.00,VWS V14.01,2013-01-27 14:01:00,
2013-01-27 09:06:00,25.2,23.0,30.59,SE,126,0.0,0.0,91,0.00,,---,0.00,VWS V14.01,2013-01-27 14:06:00,
2013-01-27 09:11:00,25.4,23.1,30.59,SE,126,0.0,0.0,91,0.00,,---,0.00,VWS V14.01,2013-01-27 14:11:00,
2013-01-27 09:16:00,25.7,23.4,30.59,SE,126,0.0,0.0,91,0.00,,---,0.00,VWS V14.01,2013-01-27 14:16:00,
2013-01-27 09:21:00,25.9,23.6,30.59,SE,126,0.0,0.0,91,0.00,,---,0.00,VWS V14.01,2013-01-27 14:21:00,
2013-01-27 09:26:00,26.3,24.0,30.59,SE,126,0.0,0.0,91,0.00,,---,0.00,VWS V14.01,2013-01-27 14:26:00,
2013-01-27 09:31:00,26.8,24.5,30.60,SE,126,0.0,0.0,91,0.00,,---,0.00,VWS V14.01,2013-01-27 14:31:00,
2013-01-27 09:36:00,27.2,24.9,30.60,SE,126,0.0,0.0,91,0.00,,---,0.00,VWS V14.01,2013-01-27 14:36:00,
2013-01-27 09:41:00,27.7,25.4,30.60,SE,126,0.0,0.0,91,0.00,,---,0.00,VWS V14.01,2013-01-27 14:41:00,
2013-01-27 09:46:00,28.1,25.8,30.60,SE,126,0.0,0.0,91,0.00,,---,0.00,VWS V14.01,2013-01-27 14:46:00,
2013-01-27 09:51:00,28.5,26.2,30.61,SE,126,0.0,0.0,91,0.00,,---,0.00,VWS V14.01,2013-01-27 14:51:00,
2013-01-27 09:56:00,28.8,26.0,30.61,SE,126,0.0,1.0,89,0.00,,---,0.00,VWS V14.01,2013-01-27 14:56:00,
2013-01-27 10:01:00,29.1,25.4,30.61,ESE,102,0.0,2.0,86,0.00,,---,0.00,VWS V14.01,2013-01-27 15:01:00,
2013-01-27 10:06:00,29.5,25.6,30.62,East,95,0.0,0.0,85,0.00,,---,0.00,VWS V14.01,2013-01-27 15:06:00,
2013-01-27 10:11:00,30.1,25.0,30.61,SE,131,0.0,0.0,81,0.00,,---,0.00,VWS V14.01,2013-01-27 15:11:00,
2013-01-27 10:16:00,30.6,25.2,30.62,East,100,1.0,1.0,80,0.00,,---,0.00,VWS V14.01,2013-01-27 15:16:00,
2013-01-27 10:21:00,30.7,25.0,30.62,ENE,76,2.0,2.0,79,0.00,,---,0.00,VWS V14.01,2013-01-27 15:21:00,
2013-01-27 10:26:00,30.8,24.8,30.62,ESE,123,0.0,0.0,78,0.00,,---,0.00,VWS V14.01,2013-01-27 15:26:00,
2013-01-27 10:31:00,31.3,25.9,30.62,ESE,103,0.0,0.0,80,0.00,,---,0.00,VWS V14.01,2013-01-27 15:31:00,
2013-01-27 10:36:00,31.9,25.8,30.62,SSE,157,4.0,4.0,78,0.00,,---,0.00,VWS V14.01,2013-01-27 15:36:00,
2013-01-27 10:41:00,31.7,25.0,30.62,SSW,192,0.0,2.0,76,0.00,,---,0.00,VWS V14.01,2013-01-27 15:41:00,
2013-01-27 10:46:00,31.6,24.9,30.62,SE,130,2.0,2.0,76,0.00,,---,0.00,VWS V14.01,2013-01-27 15:46:00,
2013-01-27 10:51:00,31.8,25.1,30.62,ENE,65,1.0,1.0,76,0.00,,---,0.00,VWS V14.01,2013-01-27 15:51:00,
2013-01-27 10:56:00,31.9,24.2,30.62,SSE,148,0.0,0.0,73,0.00,,---,0.00,VWS V14.01,2013-01-27 15:56:00,
2013-01-27 11:01:00,32.2,24.9,30.62,ESE,121,3.0,3.0,74,0.00,,---,0.00,VWS V14.01,2013-01-27 16:01:00,
2013-01-27 11:06:00,32.0,24.3,30.62,SSE,162,0.0,1.0,73,0.00,,---,0.00,VWS V14.01,2013-01-27 16:06:00,
2013-01-27 11:11:00,32.1,24.1,30.62,ESE,115,0.0,0.0,72,0.00,,---,0.00,VWS V14.01,2013-01-27 16:11:00,
2013-01-27 11:16:00,32.6,24.2,30.62,NE,49,1.0,1.0,71,0.00,,---,0.00,VWS V14.01,2013-01-27 16:16:00,
2013-01-27 11:21:00,32.4,23.7,30.62,East,87,0.0,0.0,70,0.00,,---,0.00,VWS V14.01,2013-01-27 16:21:00,
2013-01-27 11:26:00,32.5,24.2,30.62,SSE,158,3.0,4.0,71,0.00,,---,0.00,VWS V14.01,2013-01-27 16:26:00,
2013-01-27 11:31:00,32.3,24.0,30.62,SE,133,0.0,0.0,71,0.00,,---,0.00,VWS V14.01,2013-01-27 16:31:00,
2013-01-27 11:36:00,32.4,24.1,30.62,SE,124,0.0,0.0,71,0.00,,---,0.00,VWS V14.01,2013-01-27 16:36:00,
2013-01-27 11:41:00,32.6,24.2,30.62,ESE,110,0.0,2.0,71,0.00,,---,0.00,VWS V14.01,2013-01-27 16:41:00,
2013-01-27 11:46:00,32.4,24.1,30.61,SE,134,0.0,1.0,71,0.00,,---,0.00,VWS V14.01,2013-01-27 16:46:00,
2013-01-27 11:52:00,33.0,25.0,30.61,SE,143,0.0,0.0,72,0.00,,---,0.00,VWS V14.01,2013-01-27 16:52:00,
2013-01-27 11:57:00,32.9,24.2,30.61,East,100,0.0,0.0,70,0.00,,---,0.00,VWS V14.01,2013-01-27 16:57:00,
2013-01-27 12:02:00,33.0,25.0,30.61,SSW,211,0.0,4.0,72,0.00,,---,0.00,VWS V14.01,2013-01-27 17:02:00,
2013-01-27 12:07:00,33.5,25.1,30.61,SSW,211,0.0,0.0,71,0.00,,---,0.00,VWS V14.01,2013-01-27 17:07:00,
2013-01-27 12:12:00,33.8,24.7,30.60,SSE,148,0.0,2.0,69,0.00,,---,0.00,VWS V14.01,2013-01-27 17:12:00,
2013-01-27 12:17:00,33.7,25.0,30.61,SE,137,0.0,1.0,70,0.00,,---,0.00,VWS V14.01,2013-01-27 17:17:00,
2013-01-27 12:22:00,33.5,24.8,30.60,SSW,213,3.0,3.0,70,0.00,,---,0.00,VWS V14.01,2013-01-27 17:22:00,
2013-01-27 12:27:00,33.5,24.4,30.59,SSE,158,0.0,2.0,69,0.00,,---,0.00,VWS V14.01,2013-01-27 17:27:00,
2013-01-27 12:32:00,34.7,25.9,30.59,SSE,157,1.0,1.0,70,0.00,,---,0.00,VWS V14.01,2013-01-27 17:32:00,
2013-01-27 12:37:00,34.9,25.4,30.58,SW,227,3.0,3.0,68,0.00,,---,0.00,VWS V14.01,2013-01-27 17:37:00,
2013-01-27 12:42:00,34.4,24.2,30.58,SE,131,0.0,1.0,66,0.00,,---,0.00,VWS V14.01,2013-01-27 17:42:00,
2013-01-27 12:47:00,34.7,24.9,30.58,NW,309,1.0,1.0,67,0.00,,---,0.00,VWS V14.01,2013-01-27 17:47:00,
2013-01-27 12:52:00,35.1,24.2,30.58,SSW,208,3.0,3.0,64,0.00,,---,0.00,VWS V14.01,2013-01-27 17:52:00,
2013-01-27 12:57:00,35.0,24.4,30.57,SSW,209,2.0,4.0,65,0.00,,---,0.00,VWS V14.01,2013-01-27 17:57:00,
2013-01-27 13:02:00,34.6,23.7,30.56,East,88,0.0,1.0,64,0.00,,---,0.00,VWS V14.01,2013-01-27 18:02:00,
2013-01-27 13:07:00,35.2,23.9,30.56,SSE,168,2.0,4.0,63,0.00,,---,0.00,VWS V14.01,2013-01-27 18:07:00,
2013-01-27 13:12:00,35.3,24.0,30.56,East,93,2.0,5.0,63,0.00,,---,0.00,VWS V14.01,2013-01-27 18:12:00,
2013-01-27 13:17:00,35.2,24.6,30.56,SW,215,0.0,3.0,65,0.00,,---,0.00,VWS V14.01,2013-01-27 18:17:00,
2013-01-27 13:22:00,35.7,24.0,30.55,SSW,212,1.0,3.0,62,0.00,,---,0.00,VWS V14.01,2013-01-27 18:22:00,
2013-01-27 13:27:00,36.1,24.7,30.55,South,190,0.0,1.0,63,0.00,,---,0.00,VWS V14.01,2013-01-27 18:27:00,
2013-01-27 13:32:00,36.6,24.8,30.55,NW,309,1.0,3.0,62,0.00,,---,0.00,VWS V14.01,2013-01-27 18:32:00,
2013-01-27 13:37:00,38.0,24.5,30.54,SSW,192,4.0,4.0,58,0.00,,---,0.00,VWS V14.01,2013-01-27 18:37:00,
2013-01-27 13:42:00,37.8,24.8,30.54,SE,142,1.0,3.0,59,0.00,,---,0.00,VWS V14.01,2013-01-27 18:42:00,
2013-01-27 13:47:00,38.2,25.1,30.54,SSW,209,1.0,2.0,59,0.00,,---,0.00,VWS V14.01,2013-01-27 18:47:00,
2013-01-27 13:52:00,38.4,25.7,30.54,South,188,3.0,3.0,60,0.00,,---,0.00,VWS V14.01,2013-01-27 18:52:00,
2013-01-27 13:57:00,37.7,25.1,30.54,SW,231,2.0,3.0,60,0.00,,---,0.00,VWS V14.01,2013-01-27 18:57:00,
2013-01-27 14:02:00,37.1,23.7,30.54,SSE,166,0.0,1.0,58,0.00,,---,0.00,VWS V14.01,2013-01-27 19:02:00,
2013-01-27 14:07:00,37.8,25.6,30.54,South,186,5.0,6.0,61,0.00,,---,0.00,VWS V14.01,2013-01-27 19:07:00,
2013-01-27 14:12:00,37.4,24.0,30.54,SSW,210,3.0,3.0,58,0.00,,---,0.00,VWS V14.01,2013-01-27 19:12:00,
2013-01-27 14:17:00,36.7,23.7,30.54,SSW,203,0.0,1.0,59,0.00,,---,0.00,VWS V14.01,2013-01-27 19:17:00,
2013-01-27 14:22:00,37.9,25.3,30.54,SSW,208,0.0,2.0,60,0.00,,---,0.00,VWS V14.01,2013-01-27 19:22:00,
2013-01-27 14:27:00,38.5,24.6,30.54,WSW,255,1.0,2.0,57,0.00,,---,0.00,VWS V14.01,2013-01-27 19:27:00,
2013-01-27 14:32:00,37.9,25.3,30.54,South,173,6.0,6.0,60,0.00,,---,0.00,VWS V14.01,2013-01-27 19:32:00,
2013-01-27 14:37:00,37.6,24.6,30.54,West,276,1.0,2.0,59,0.00,,---,0.00,VWS V14.01,2013-01-27 19:37:00,
2013-01-27 14:42:00,38.3,24.8,30.54,WSW,248,1.0,1.0,58,0.00,,---,0.00,VWS V14.01,2013-01-27 19:42:00,
2013-01-27 14:47:00,38.5,25.0,30.54,WSW,256,0.0,0.0,58,0.00,,---,0.00,VWS V14.01,2013-01-27 19:47:00,
2013-01-27 14:52:00,38.1,24.2,30.54,SSE,150,3.0,6.0,57,0.00,,---,0.00,VWS V14.01,2013-01-27 19:52:00,
2013-01-27 14:57:00,38.4,24.9,30.54,SSW,211,3.0,5.0,58,0.00,,---,0.00,VWS V14.01,2013-01-27 19:57:00,
2013-01-27 15:02:00,38.2,24.7,30.54,SE,143,1.0,5.0,58,0.00,,---,0.00,VWS V14.01,2013-01-27 20:02:00,
2013-01-27 15:07:00,38.2,25.1,30.54,West,259,0.0,2.0,59,0.00,,---,0.00,VWS V14.01,2013-01-27 20:07:00,
2013-01-27 15:12:00,37.7,24.3,30.54,SSE,158,5.0,12.0,58,0.00,,---,0.00,VWS V14.01,2013-01-27 20:12:00,
2013-01-27 15:17:00,37.9,25.7,30.54,West,260,2.0,2.0,61,0.00,,---,0.00,VWS V14.01,2013-01-27 20:17:00,
2013-01-27 15:23:00,38.1,24.6,30.54,WSW,255,2.0,4.0,58,0.00,,---,0.00,VWS V14.01,2013-01-27 20:23:00,
2013-01-27 15:28:00,38.7,26.4,30.54,WSW,257,0.0,2.0,61,0.00,,---,0.00,VWS V14.01,2013-01-27 20:28:00,
2013-01-27 15:33:00,38.4,25.3,30.54,WSW,242,0.0,3.0,59,0.00,,---,0.00,VWS V14.01,2013-01-27 20:33:00,
2013-01-27 15:38:00,38.7,25.2,30.53,South,189,1.0,2.0,58,0.00,,---,0.00,VWS V14.01,2013-01-27 20:38:00,
2013-01-27 15:43:00,38.6,24.7,30.53,SSW,209,1.0,5.0,57,0.00,,---,0.00,VWS V14.01,2013-01-27 20:43:00,
2013-01-27 15:48:00,38.3,24.8,30.53,SSW,203,1.0,4.0,58,0.00,,---,0.00,VWS V14.01,2013-01-27 20:48:00,
2013-01-27 15:53:00,38.0,25.4,30.53,South,184,0.0,2.0,60,0.00,,---,0.00,VWS V14.01,2013-01-27 20:53:00,
2013-01-27 15:58:00,38.5,25.8,30.54,SSW,205,0.0,2.0,60,0.00,,---,0.00,VWS V14.01,2013-01-27 20:58:00,
2013-01-27 16:03:00,38.4,25.7,30.53,SW,227,0.0,0.0,60,0.00,,---,0.00,VWS V14.01,2013-01-27 21:03:00,
2013-01-27 16:08:00,38.2,25.1,30.53,SSW,207,1.0,3.0,59,0.00,,---,0.00,VWS V14.01,2013-01-27 21:08:00,
2013-01-27 16:13:00,38.0,25.8,30.54,South,178,2.0,2.0,61,0.00,,---,0.00,VWS V14.01,2013-01-27 21:13:00,
2013-01-27 16:18:00,37.5,24.5,30.54,SSW,205,1.0,5.0,59,0.00,,---,0.00,VWS V14.01,2013-01-27 21:18:00,
2013-01-27 16:23:00,37.4,25.2,30.54,SSW,206,0.0,1.0,61,0.00,,---,0.00,VWS V14.01,2013-01-27 21:23:00,
2013-01-27 16:28:00,37.3,25.1,30.54,SSW,206,0.0,1.0,61,0.00,,---,0.00,VWS V14.01,2013-01-27 21:28:00,
2013-01-27 16:33:00,37.1,24.9,30.54,SSW,196,0.0,3.0,61,0.00,,---,0.00,VWS V14.01,2013-01-27 21:33:00,
2013-01-27 16:38:00,36.8,25.0,30.54,SSW,207,1.0,3.0,62,0.00,,---,0.00,VWS V14.01,2013-01-27 21:38:00,
2013-01-27 16:43:00,36.6,24.8,30.54,South,190,0.0,4.0,62,0.00,,---,0.00,VWS V14.01,2013-01-27 21:43:00,
2013-01-27 16:48:00,36.4,24.6,30.55,South,188,7.0,7.0,62,0.00,,---,0.00,VWS V14.01,2013-01-27 21:48:00,
2013-01-27 16:53:00,36.3,24.9,30.55,South,187,2.0,2.0,63,0.00,,---,0.00,VWS V14.01,2013-01-27 21:53:00,
2013-01-27 16:58:00,36.1,24.7,30.54,South,187,1.0,1.0,63,0.00,,---,0.00,VWS V14.01,2013-01-27 21:58:00,
2013-01-27 17:03:00,36.0,24.6,30.54,South,176,0.0,4.0,63,0.00,,---,0.00,VWS V14.01,2013-01-27 22:03:00,
2013-01-27 17:08:00,35.8,24.5,30.54,SW,226,2.0,3.0,63,0.00,,---,0.00,VWS V14.01,2013-01-27 22:08:00,
2013-01-27 17:13:00,35.7,24.7,30.54,SSW,205,0.0,0.0,64,0.00,,---,0.00,VWS V14.01,2013-01-27 22:13:00,
2013-01-27 17:18:00,35.6,24.6,30.55,SSW,205,0.0,0.0,64,0.00,,---,0.00,VWS V14.01,2013-01-27 22:18:00,
2013-01-27 17:23:00,35.5,24.9,30.55,SSW,205,0.0,0.0,65,0.00,,---,0.00,VWS V14.01,2013-01-27 22:23:00,
2013-01-27 17:28:00,35.4,24.5,30.55,SSW,205,0.0,1.0,64,0.00,,---,0.00,VWS V14.01,2013-01-27 22:28:00,
2013-01-27 17:33:00,35.4,24.5,30.55,SSW,205,0.0,0.0,64,0.00,,---,0.00,VWS V14.01,2013-01-27 22:33:00,
2013-01-27 17:38:00,35.3,24.4,30.55,SSW,205,0.0,0.0,64,0.00,,---,0.00,VWS V14.01,2013-01-27 22:38:00,
2013-01-27 17:43:00,35.2,24.3,30.55,SSW,205,0.0,0.0,64,0.00,,---,0.00,VWS V14.01,2013-01-27 22:43:00,
2013-01-27 17:48:00,35.0,24.4,30.55,SSW,205,0.0,0.0,65,0.00,,---,0.00,VWS V14.01,2013-01-27 22:48:00,
2013-01-27 17:53:00,34.8,25.0,30.55,SSW,205,0.0,0.0,67,0.00,,---,0.00,VWS V14.01,2013-01-27 22:53:00,
2013-01-27 17:58:00,34.5,24.7,30.55,SSW,205,0.0,0.0,67,0.00,,---,0.00,VWS V14.01,2013-01-27 22:58:00,
2013-01-27 18:03:00,34.2,24.4,30.55,SSW,205,0.0,0.0,67,0.00,,---,0.00,VWS V14.01,2013-01-27 23:03:00,
2013-01-27 18:08:00,33.9,24.5,30.55,SSW,205,0.0,0.0,68,0.00,,---,0.00,VWS V14.01,2013-01-27 23:08:00,
2013-01-27 18:13:00,33.7,23.9,30.55,SSW,205,0.0,0.0,67,0.00,,---,0.00,VWS V14.01,2013-01-27 23:13:00,
2013-01-27 18:18:00,33.4,24.3,30.54,SSW,205,0.0,0.0,69,0.00,,---,0.00,VWS V14.01,2013-01-27 23:18:00,
2013-01-27 18:23:00,33.2,24.5,30.54,SSW,205,0.0,0.0,70,0.00,,---,0.00,VWS V14.01,2013-01-27 23:23:00,
2013-01-27 18:28:00,32.8,24.1,30.54,SSW,205,0.0,0.0,70,0.00,,---,0.00,VWS V14.01,2013-01-27 23:28:00,
2013-01-27 18:33:00,32.5,23.8,30.55,SSW,205,0.0,0.0,70,0.00,,---,0.00,VWS V14.01,2013-01-27 23:33:00,
2013-01-27 18:38:00,32.2,23.5,30.55,SSW,205,0.0,0.0,70,0.00,,---,0.00,VWS V14.01,2013-01-27 23:38:00,
2013-01-27 18:43:00,32.0,23.7,30.55,SSW,205,0.0,0.0,71,0.00,,---,0.00,VWS V14.01,2013-01-27 23:43:00,
2013-01-27 18:48:00,31.8,23.5,30.55,SSW,205,0.0,0.0,71,0.00,,---,0.00,VWS V14.01,2013-01-27 23:48:00,
2013-01-27 18:53:00,31.5,23.9,30.55,SSW,205,0.0,0.0,73,0.00,,---,0.00,VWS V14.01,2013-01-27 23:53:00,
2013-01-27 18:58:00,31.3,23.7,30.54,SSW,205,0.0,0.0,73,0.00,,---,0.00,VWS V14.01,2013-01-27 23:58:00,
2013-01-27 19:03:00,31.1,23.5,30.54,SSW,205,0.0,0.0,73,0.00,,---,0.00,VWS V14.01,2013-01-28 00:03:00,
2013-01-27 19:08:00,30.8,23.8,30.53,SSW,205,0.0,0.0,75,0.00,,---,0.00,VWS V14.01,2013-01-28 00:08:00,
2013-01-27 19:13:00,30.5,23.5,30.53,SSW,205,0.0,0.0,75,0.00,,---,0.00,VWS V14.01,2013-01-28 00:13:00,
2013-01-27 19:18:00,30.3,23.7,30.53,SSW,205,0.0,0.0,76,0.00,,---,0.00,VWS V14.01,2013-01-28 00:18:00,
2013-01-27 19:23:00,30.2,23.6,30.54,SSW,205,0.0,0.0,76,0.00,,---,0.00,VWS V14.01,2013-01-28 00:23:00,
2013-01-27 19:28:00,30.2,23.9,30.54,SSW,205,0.0,0.0,77,0.00,,---,0.00,VWS V14.01,2013-01-28 00:28:00,
2013-01-27 19:33:00,30.2,24.2,30.54,SSW,205,0.0,0.0,78,0.00,,---,0.00,VWS V14.01,2013-01-28 00:33:00,
2013-01-27 19:38:00,30.2,24.5,30.54,SSW,205,0.0,0.0,79,0.00,,---,0.00,VWS V14.01,2013-01-28 00:38:00,
2013-01-27 19:43:00,30.3,24.0,30.54,SSW,205,0.0,0.0,77,0.00,,---,0.00,VWS V14.01,2013-01-28 00:43:00,
2013-01-27 19:48:00,30.3,23.7,30.54,SSW,205,0.0,0.0,76,0.00,,---,0.00,VWS V14.01,2013-01-28 00:48:00,
2013-01-27 19:53:00,30.3,23.7,30.54,SSW,205,0.0,0.0,76,0.00,,---,0.00,VWS V14.01,2013-01-28 00:53:00,
2013-01-27 19:58:00,30.4,23.4,30.54,SSW,205,0.0,0.0,75,0.00,,---,0.00,VWS V14.01,2013-01-28 00:58:00,
2013-01-27 20:03:00,30.3,23.7,30.54,SSW,205,0.0,0.0,76,0.00,,---,0.00,VWS V14.01,2013-01-28 01:03:00,
2013-01-27 20:08:00,30.2,23.9,30.54,SSW,205,0.0,0.0,77,0.00,,---,0.00,VWS V14.01,2013-01-28 01:08:00,
2013-01-27 20:14:00,30.0,23.7,30.53,SSW,205,0.0,0.0,77,0.00,,---,0.00,VWS V14.01,2013-01-28 01:14:00,
2013-01-27 20:18:00,29.8,23.8,30.53,SSW,205,0.0,0.0,78,0.00,,---,0.00,VWS V14.01,2013-01-28 01:18:00,
2013-01-27 20:23:00,29.6,23.6,30.53,SSW,205,0.0,0.0,78,0.00,,---,0.00,VWS V14.01,2013-01-28 01:23:00,
2013-01-27 20:28:00,29.4,23.4,30.53,SSW,205,0.0,0.0,78,0.00,,---,0.00,VWS V14.01,2013-01-28 01:28:00,
2013-01-27 20:33:00,29.4,23.4,30.53,SSW,205,0.0,0.0,78,0.00,,---,0.00,VWS V14.01,2013-01-28 01:33:00,
2013-01-27 20:39:00,29.5,23.5,30.52,SSW,205,0.0,0.0,78,0.00,,---,0.00,VWS V14.01,2013-01-28 01:39:00,
2013-01-27 20:44:00,29.6,23.9,30.52,SSW,205,0.0,0.0,79,0.00,,---,0.00,VWS V14.01,2013-01-28 01:44:00,
2013-01-27 20:49:00,29.6,24.2,30.53,SSW,205,0.0,0.0,80,0.00,,---,0.00,VWS V14.01,2013-01-28 01:49:00,
2013-01-27 20:54:00,29.6,23.9,30.52,SSW,205,0.0,0.0,79,0.00,,---,0.00,VWS V14.01,2013-01-28 01:54:00,
2013-01-27 20:59:00,29.7,24.3,30.52,SSW,205,0.0,0.0,80,0.00,,---,0.00,VWS V14.01,2013-01-28 01:59:00,
2013-01-27 21:04:00,29.7,24.3,30.52,SSW,205,0.0,0.0,80,0.00,,---,0.00,VWS V14.01,2013-01-28 02:04:00,
2013-01-27 21:09:00,29.7,24.3,30.53,SSW,205,0.0,0.0,80,0.00,,---,0.00,VWS V14.01,2013-01-28 02:09:00,
2013-01-27 21:14:00,29.7,24.6,30.52,SSW,205,0.0,0.0,81,0.00,,---,0.00,VWS V14.01,2013-01-28 02:14:00,
2013-01-27 21:19:00,29.6,24.2,30.52,SSW,205,0.0,0.0,80,0.00,,---,0.00,VWS V14.01,2013-01-28 02:19:00,
2013-01-27 21:24:00,29.6,23.9,30.52,SSW,205,0.0,0.0,79,0.00,,---,0.00,VWS V14.01,2013-01-28 02:24:00,
2013-01-27 21:29:00,29.6,24.2,30.53,SSW,205,0.0,0.0,80,0.00,,---,0.00,VWS V14.01,2013-01-28 02:29:00,
2013-01-27 21:34:00,29.5,24.1,30.52,SSW,205,0.0,0.0,80,0.00,,---,0.00,VWS V14.01,2013-01-28 02:34:00,
2013-01-27 21:39:00,29.5,24.4,30.52,SSW,205,0.0,0.0,81,0.00,,---,0.00,VWS V14.01,2013-01-28 02:39:00,
2013-01-27 21:44:00,29.5,24.1,30.53,SSW,205,0.0,0.0,80,0.00,,---,0.00,VWS V14.01,2013-01-28 02:44:00,
2013-01-27 21:49:00,29.4,24.0,30.52,SSW,205,0.0,0.0,80,0.00,,---,0.00,VWS V14.01,2013-01-28 02:49:00,
2013-01-27 21:54:00,29.3,23.9,30.51,SSW,205,0.0,0.0,80,0.00,,---,0.00,VWS V14.01,2013-01-28 02:54:00,
2013-01-27 21:59:00,29.5,24.1,30.51,SSW,205,0.0,0.0,80,0.00,,---,0.00,VWS V14.01,2013-01-28 02:59:00,
2013-01-27 22:04:00,29.7,24.0,30.51,SSW,205,0.0,0.0,79,0.00,,---,0.00,VWS V14.01,2013-01-28 03:04:00,
2013-01-27 22:09:00,30.0,24.0,30.52,SSW,205,0.0,0.0,78,0.00,,---,0.00,VWS V14.01,2013-01-28 03:09:00,
2013-01-27 22:14:00,30.1,24.1,30.51,SSW,205,0.0,0.0,78,0.00,,---,0.00,VWS V14.01,2013-01-28 03:14:00,
2013-01-27 22:19:00,30.1,24.1,30.52,SSW,205,0.0,0.0,78,0.00,,---,0.00,VWS V14.01,2013-01-28 03:19:00,
2013-01-27 22:24:00,30.3,24.3,30.52,ENE,78,0.0,0.0,78,0.00,,---,0.00,VWS V14.01,2013-01-28 03:24:00,
2013-01-27 22:29:00,30.3,24.0,30.52,ENE,78,0.0,0.0,77,0.00,,---,0.00,VWS V14.01,2013-01-28 03:29:00,
2013-01-27 22:34:00,30.4,24.1,30.52,ESE,121,0.0,1.0,77,0.00,,---,0.00,VWS V14.01,2013-01-28 03:34:00,
2013-01-27 22:39:00,30.4,23.8,30.51,SE,127,0.0,1.0,76,0.00,,---,0.00,VWS V14.01,2013-01-28 03:39:00,
2013-01-27 22:44:00,30.7,24.0,30.52,SE,127,0.0,0.0,76,0.00,,---,0.00,VWS V14.01,2013-01-28 03:44:00,
2013-01-27 22:49:00,31.0,24.3,30.51,SE,134,0.0,1.0,76,0.00,,---,0.00,VWS V14.01,2013-01-28 03:49:00,
2013-01-27 22:54:00,31.3,24.6,30.52,SSW,207,0.0,1.0,76,0.00,,---,0.00,VWS V14.01,2013-01-28 03:54:00,
2013-01-27 22:59:00,31.5,24.8,30.51,SSW,207,0.0,1.0,76,0.00,,---,0.00,VWS V14.01,2013-01-28 03:59:00,
2013-01-27 23:04:00,31.8,24.8,30.51,South,181,1.0,2.0,75,0.00,,---,0.00,VWS V14.01,2013-01-28 04:04:00,
2013-01-27 23:09:00,32.1,25.1,30.51,SSE,152,0.0,1.0,75,0.00,,---,0.00,VWS V14.01,2013-01-28 04:09:00,
2013-01-27 23:14:00,32.3,25.3,30.51,South,180,0.0,4.0,75,0.00,,---,0.00,VWS V14.01,2013-01-28 04:14:00,
2013-01-27 23:19:00,32.4,25.0,30.50,SSW,198,2.0,4.0,74,0.00,,---,0.00,VWS V14.01,2013-01-28 04:19:00,
2013-01-27 23:24:00,32.5,25.5,30.50,South,173,0.0,3.0,75,0.00,,---,0.00,VWS V14.01,2013-01-28 04:24:00,
2013-01-27 23:29:00,32.7,25.7,30.49,South,178,5.0,5.0,75,0.00,,---,0.00,VWS V14.01,2013-01-28 04:29:00,
2013-01-27 23:34:00,32.8,25.8,30.49,SE,125,2.0,4.0,75,0.00,,---,0.00,VWS V14.01,2013-01-28 04:34:00,
2013-01-27 23:39:00,32.9,25.9,30.49,SW,221,2.0,6.0,75,0.00,,---,0.00,VWS V14.01,2013-01-28 04:39:00,
2013-01-27 23:44:00,33.1,25.7,30.50,South,190,7.0,7.0,74,0.00,,---,0.00,VWS V14.01,2013-01-28 04:44:00,
2013-01-27 23:49:00,33.3,25.9,30.50,SW,229,0.0,3.0,74,0.00,,---,0.00,VWS V14.01,2013-01-28 04:49:00,
2013-01-27 23:54:00,33.5,26.1,30.50,WSW,248,1.0,5.0,74,0.00,,---,0.00,VWS V14.01,2013-01-28 04:54:00,
2013-01-27 23:59:00,33.6,26.2,30.50,SSW,209,0.0,4.0,74,0.00,,---,0.00,VWS V14.01,2013-01-28 04:59:00,